Regional Weather Roundup
Issued by NWS

Home | Current Version | Previous Version | Text Only | Print | Product List | Glossary On
Versions: 1 2 3 4 5 6 7 8 9 10 11 12 13 14 15 16 17 18 19 20 21 22 23 24 25 26 27
000
ASUS46 KPQR 231110
RWROR

OREGON REGIONAL WEATHER ROUNDUP
NATIONAL WEATHER SERVICE PORTLAND OR
400 AM PDT SUN APR 23 2017

NOTE: "FAIR" INDICATES FEW OR NO CLOUDS BELOW 12,000 FEET WITH
NO SIGNIFICANT WEATHER AND/OR OBSTRUCTIONS TO VISIBILITY.

ORZ001>013-231200-
NORTHWEST OREGON


CITY           SKY/WX    TMP DP  RH WIND       PRES   REMARKS
ASTORIA        CLOUDY    48  45  89 SE3       29.92F
NEWPORT        CLOUDY    50  46  87 S7        29.98F
PORTLAND       CLOUDY    50  43  77 S5        29.97S
VANCOUVER WA   CLOUDY    51  46  83 CALM      29.96S
SCAPPOOSE      CLOUDY    45  44  97 CALM      29.95F
HILLSBORO      CLOUDY    47  44  90 CALM      29.95F
AURORA         MOCLDY    49  43  80 CALM      29.97F
MCMINNVILLE    CLOUDY    47  44  90 MISG      29.97F
SALEM          CLOUDY    50  43  77 S8        29.96S
CORVALLIS      CLOUDY    48  45  87 CALM      29.97F
EUGENE         CLOUDY    47  45  93 CALM      29.98F
$$

ORZ021-028-231200-
SOUTHWEST OREGON


CITY           SKY/WX    TMP DP  RH WIND       PRES   REMARKS
NORTH BEND     CLOUDY    48  46  93 S6        29.99F
BROOKINGS      CLOUDY    50  48  93 SE6       30.03S
ROSEBURG       CLOUDY    46  44  93 CALM      29.99S
SEXTON SUMMIT  PTCLDY    35  34  96 S8        29.95R WCI  29
MEDFORD        PTCLDY    47  39  74 NE3       29.99R
$$

ORZ014>016-041-231200-
COLUMBIA GORGE


CITY           SKY/WX    TMP DP  RH WIND       PRES   REMARKS
TROUTDALE      CLOUDY    51  45  79 CALM      29.96F
HOOD RIVER     CLOUDY    50  43  76 CALM      29.95S
THE DALLES     MOCLDY    50  43  77 CALM      29.94S
$$

ORZ029>031-041-044-049-050-061>064-502-503-505>511-231200-
EASTERN OREGON


CITY           SKY/WX    TMP DP  RH WIND       PRES   REMARKS
REDMOND        CLOUDY    38  33  82 S5        29.92F WCI  34
BEND           MOCLDY    39  36  87 CALM      29.93S
PRINEVILLE     CLOUDY    41  37  87 CALM      29.92S
KLAMATH FALLS  PTCLDY    36  33  89 S3        29.94S
LAKEVIEW       CLOUDY    41  36  81 SW5       29.93S
HERMISTON      CLOUDY    51  42  71 SW5       29.92R
PENDLETON      CLOUDY    47  42  83 S5        29.92R
JOHN DAY       CLOUDY    46  40  81 CALM      29.90S
MEACHAM        CLOUDY    41  34  76 CALM      29.92R
LA GRANDE      CLOUDY    45  39  81 NW9       29.90S
BAKER CITY     CLOUDY    43  39  86 W8        29.90S
BURNS          CLOUDY    44  37  76 NW10      29.88R
ROME             N/A     49  30  48 S14       29.85R
ONTARIO        CLOUDY    51  41  68 NW9       29.83R
$$




USA.gov is the U.S. government's official web portal to all federal, state and local government web resources and services.